Погода в Туапсе

Россия / Краснодарский край     44°05′44″N   39°04′24″E
темп.,
°C
ветер,
м/с
пор.,
м/с
влажн.,
%
обл.,
%
осадки,
мм/ч
давл.,
гПа
погр.,
м
18 октября, пн
пн1800:00+18сз447880 0.0 1014304
03:00+17с227380 0.0 1014200
06:00+17с227576 0.0 1015220
09:00+17ссз337465 0.0 1016253
12:00+18зсз436794 0.0 1016321
15:00+19зсз545999 0.0 1016360
18:00+19сз566512 0.0 1017391
21:00+18всв336320 0.0 1018254
19 октября, вт
вт1900:00+16ссз44635 0.1 1019320
03:00+15сз5569100 0.1 1020422
06:00+15сз6760100 0.0 1020618
09:00+15сз6664100 0.0 1021835
12:00+15зсз776093 0.0 10221204
15:00+14зсз9971100 0.3 10221163
18:00+14сз785698 0.9 10231712
21:00+14с455530 1.0 10251257
20 октября, ср
ср2000:00+12с556498 0.0 1026858
03:00+12с55590 0.0 1026757
06:00+12с56522 0.0 10281179
09:00+12с56505 0.0 10291081
12:00+12сз6646100 0.0 10291116
15:00+13сз664797 0.0 10281142
18:00+14с66465 0.0 10281049
21:00+12ссв54515 0.0 1029571
21 октября, чт
чт2100:00+12всв325256 0.0 1029509
03:00+13вюв23540 0.0 1028816
06:00+13ююв55565 0.0 1028987
09:00+14юв556213 0.0 1028846
12:00+14ююв66665 0.0 1027881
15:00+15ююв56636 0.0 1026975
18:00+16ююв55580 0.0 1025830
21:00+15юв45575 0.0 1024627
22 октября, пт
пт2200:00+15юв35615 0.0 1023479
03:00+16юв56620 0.0 1022432
06:00+16ююв56610 0.0 1021441
09:00+17юв34590 0.0 1021346
12:00+17ююв23550 0.0 1021240
15:00+18юв22520 0.0 1020248
18:00+18всв11500 0.0 1020106
21:00+18св22500 0.0 1019114